sat.trackr.live / text

‹ back to catalog

STARLINK-34001

NORAD 64272 · 2025-120S

PAYLOAD ACTIVE UNKNOWN

§ Identity

Operator
Country
US
Launch date
2025-06-04
Launch site
AFWTR
Launch vehicle
Mass (kg)
RCS (m²)

Purposes: comms

External: N2YO · Heavens-Above · Gunter

§ Orbital elements

Epoch: 2026-05-25T02:55:29.369280Z

Period
94.10 min
Inclination
53.1611°
Eccentricity
0.0001580
Mean motion
15.30210730 rev/d
Perigee alt
474.1 km
Apogee alt
476.3 km
Semi-major
6,853.3 km
B*
5.1122e-4
RAAN
121.9959°
Arg perigee
98.7004°
Mean anomaly
261.4176°
Rev number
5,551

§ Raw data

STARLINK-340011 64272U 25120S   26145.12186770  .00014817  00000+0  51122-3 0  99952 64272  53.1611 121.9959 0001580  98.7004 261.4176 15.30210730 55513

JSON: /api/v1/satellites/64272 · /tle

For live sub-satellite position, see the globe view (requires WebGL).

§ Visibility from observer

Set your observer location to see the next 7 days of passes ≥ 10°. The values pass through the URL so the page stays shareable.

No JS? Fill the form by hand. The geolocation button needs JavaScript.